Terminal Aerodrome Forecast
Issued by NWS Atlanta, GA

Home | Current Version | Previous Version | Text Only | Print | Product List | Glossary On
Versions: 1 2 3 4 5 6 7 8 9 10 11 12 13 14 15 16 17 18 19 20 21 22 23 24 25 26 27 28 29 30 31 32 33 34 35
436
FTAK31 PAJN 241949 AAA
TAFAHN
TAF AMD
PAHN 241949Z 2420/2518 08013KT P6SM -SHRA SCT015 BKN030 OVC045
      TEMPO 2420/2424 3SM -SHRA BR BKN015 OVC030
     FM251200 08005KT P6SM -SHRA BKN015 OVC030
      AMD LTD TO CLD VIS AND WIND=

USA.gov is the U.S. government's official web portal to all federal, state and local government web resources and services.